Charlottesville, VA

2:19 AM EDT on April 26, 2018 (GMT -0400)
Charlottesville-Albemarle

Weather History for KCHO - February, 2014

Change the Weather History Date:

Wednesday, February 12, 2014

  Actual Average Record
Temperature  
Mean Temperature 20 °F 38 °F  
Max Temperature 24 °F 48 °F 82 °F (2017)
Min Temperature 15 °F 27 °F 5 °F (1899)
Degree Days  
Heating Degree Days 45 27  
Month to date heating degree days 353 339  
Since 1 July heating degree days 3091 2999  
Cooling Degree Days 0 0  
Month to date cooling degree days 0 0  
Year to date cooling degree days 0 0  
Moisture  
Dew Point 12 °F    
Average Humidity 69    
Maximum Humidity 91    
Minimum Humidity 46    
Precipitation  
Precipitation 0.16 in 0.10 in 0.16 in (2014)
Month to date precipitation 1.72 1.01  
Year to date precipitation 3.97 3.78  
Sea Level Pressure  
Sea Level Pressure 30.33 in    
Wind  
Wind Speed 7 mph (NE)    
Max Wind Speed 20 mph    
Max Gust Speed 24 mph    
Visibility 5 miles    
Events Fog , Snow    
T = Trace of Precipitation, MM = Missing Value Source: NWS Daily Summary

Daily Weather History Graph

Daily Weather History Graph

Search for Another Location

Airport or City:

Astronomy

Feb. 12, 2014 Rise Set
Actual Time 7:07 AM EST 5:49 PM EST
Civil Twilight 6:40 AM EST 6:16 PM EST
Nautical Twilight 6:09 AM EST 6:47 PM EST
Astronomical Twilight 5:38 AM EST 7:17 PM EST
Moon 4:01 PM EST (2/12) 5:22 AM EST (2/12)
Length of Visible Light 11h 35m
Length of Day
10h 41m
Waxing Gibbous, 95% of the Moon is Illuminated
Feb 12
Waxing Gibbous
Feb 14
Full
Feb 22
Last Quarter
Mar 1
New
Mar 8
First Quarter

Hourly Weather History & Observations

Time (EST) Temp. Windchill Dew Point Humidity Pressure Visibility Wind Dir Wind Speed Gust Speed Precip Events Conditions
12:53 AM 21.0 °F 13.4 °F 8.1 °F 57% 30.46 in 10.0 mi NE 5.8 mph - N/A   Clear
1:53 AM 19.0 °F 13.9 °F 8.1 °F 62% 30.46 in - NNE 3.5 mph - N/A   Clear
2:53 AM 18.0 °F 11.1 °F 8.1 °F 65% 30.46 in - North 4.6 mph - N/A   Clear
3:53 AM 17.1 °F 8.7 °F 7.0 °F 65% 30.47 in - NNE 5.8 mph - N/A   Clear
4:53 AM 17.1 °F 11.7 °F 7.0 °F 65% 30.48 in 10.0 mi NE 3.5 mph - N/A   Clear
5:53 AM 16.0 °F - 7.0 °F 68% 30.49 in 10.0 mi Calm Calm - N/A   Clear
6:53 AM 16.0 °F 8.8 °F 7.0 °F 68% 30.48 in 10.0 mi NNE 4.6 mph - N/A   Clear
7:53 AM 17.1 °F 7.6 °F 6.1 °F 62% 30.49 in 10.0 mi ENE 6.9 mph - N/A   Clear
8:53 AM 19.0 °F 8.2 °F 7.0 °F 59% 30.50 in 10.0 mi NE 9.2 mph - N/A   Clear
9:53 AM 19.9 °F 10.1 °F 8.1 °F 60% 30.50 in 10.0 mi ENE 8.1 mph - N/A   Clear
10:53 AM 21.9 °F 15.7 °F 8.1 °F 55% 30.49 in 10.0 mi East 4.6 mph - N/A   Clear
11:53 AM 23.0 °F 14.7 °F 7.0 °F 50% 30.45 in 10.0 mi East 6.9 mph - N/A   Clear
12:53 PM 23.0 °F 17.0 °F 7.0 °F 50% 30.42 in 10.0 mi ENE 4.6 mph - N/A   Clear
1:53 PM 24.1 °F 16.0 °F 7.0 °F 48% 30.41 in 10.0 mi NE 6.9 mph - N/A   Clear
2:53 PM 24.1 °F 15.2 °F 7.0 °F 48% 30.37 in 10.0 mi ENE 8.1 mph - N/A   Overcast
3:53 PM 24.1 °F 16.0 °F 8.1 °F 51% 30.35 in 10.0 mi NNE 6.9 mph - N/A   Overcast
4:53 PM 24.1 °F 16.0 °F 8.1 °F 51% 30.32 in 10.0 mi NE 6.9 mph - N/A   Overcast
5:37 PM 21.9 °F 12.5 °F 10.9 °F 63% 30.27 in 2.0 mi NE 8.1 mph - 0.00 in Snow Light Snow
5:44 PM 21.9 °F 12.5 °F 12.0 °F 66% 30.27 in 1.5 mi NE 8.1 mph - 0.00 in Snow Light Snow
5:53 PM 21.9 °F 11.0 °F 12.9 °F 68% 30.29 in 2.0 mi NE 10.4 mph - 0.00 in Snow Light Snow
6:12 PM 21.0 °F 10.6 °F 14.0 °F 74% 30.26 in 1.5 mi NNE 9.2 mph - 0.00 in Snow Light Snow
6:33 PM 21.0 °F 10.6 °F 16.0 °F 81% 30.26 in 1.0 mi NE 9.2 mph - 0.00 in Snow Light Snow
6:53 PM 19.9 °F 12.1 °F 17.1 °F 89% 30.28 in 1.2 mi NNE 5.8 mph - 0.01 in Snow Light Snow
7:53 PM 19.9 °F 11.1 °F 17.1 °F 89% 30.25 in 1.0 mi NNE 6.9 mph - 0.01 in Snow Light Snow
8:13 PM 19.9 °F 9.3 °F 16.0 °F 85% 30.21 in 1.2 mi NNE 9.2 mph - 0.01 in Snow Light Snow
8:53 PM 19.9 °F 8.6 °F 17.1 °F 89% 30.22 in 1.0 mi NNE 10.4 mph - 0.01 in Snow Light Snow
9:10 PM 19.9 °F 11.1 °F 17.1 °F 89% 30.19 in 0.8 mi NNE 6.9 mph - 0.01 in Snow Light Snow
9:23 PM 19.9 °F 11.1 °F 17.1 °F 89% 30.18 in 0.5 mi North 6.9 mph - 0.03 in Fog , Snow Snow
9:53 PM 21.0 °F 11.4 °F 18.0 °F 88% 30.17 in 0.5 mi North 8.1 mph - 0.06 in Fog , Snow Snow
10:53 PM 23.0 °F 10.6 °F 19.9 °F 88% 30.11 in 0.5 mi NNE 13.8 mph - 0.05 in Fog , Snow Snow
11:20 PM 24.1 °F 11.0 °F 19.9 °F 84% 30.06 in 0.8 mi NNE 16.1 mph 24.2 mph 0.01 in Snow Light Snow
11:37 PM 24.1 °F 13.1 °F 21.0 °F 88% 30.06 in 1.2 mi NNE 11.5 mph - 0.01 in Snow Light Snow
11:53 PM 24.1 °F 12.0 °F 21.0 °F 88% 30.07 in 0.8 mi NNE 13.8 mph - 0.01 in Snow Light Snow